SM6PGP-2 Weather Reports


Display with metric or nautical units.
time (UTC)temp
F
wind
direction
speed
MPH
gust
MPH
rain 1hr
in
rain 24hr
in
rain mn
in
humidity
%
barometer
mb
20180117010259 34 333 2.0 3.0 0.00 0.00 0.01 94 981.9
20180117005753 34 319 1.0 2.0 0.00 0.00 0.01 96 981.8
20180117005248 34 333 2.0 3.0 0.00 0.00 0.01 97 981.8
20180117004743 34 0 2.0 4.0 0.00 0.00 0.01 96 981.7
20180117004237 34 0 2.0 4.0 0.00 0.00 0.01 95 981.7
20180117003733 34 0 5.0 9.0 0.00 0.00 0.01 96 981.7
20180117003227 34 306 5.0 8.0 0.00 0.00 0.01 96 981.8
20180117002722 34 355 4.0 6.0 0.00 0.00 0.01 95 981.8
20180117002217 34 337 6.0 7.0 0.00 0.00 0.01 95 981.8
20180117001711 34 337 5.0 6.0 0.00 0.00 0.01 93 981.8
20180117001207 34 270 5.0 12.0 0.00 0.00 0.01 93 981.8
20180117000701 35 337 9.0 10.0 0.00 0.00 0.01 93 981.7
20180117000156 35 337 10.0 11.0 0.00 0.00 0.01 95 981.7
20180116235651 35 337 9.0 9.0 0.00 0.00 0.01 96 981.6
20180116235145 35 252 7.0 10.0 0.00 0.00 0.01 94 981.6
20180116234641 35 270 7.0 9.0 0.00 0.00 0.01 95 981.7
20180116234135 35 270 4.0 7.0 0.00 0.00 0.01 96 981.6
20180116233630 35 270 7.0 7.0 0.00 0.00 0.01 94 981.7
20180116233125 35 297 4.0 4.0 0.00 0.00 0.01 95 981.5
20180116232619 35 337 2.0 2.0 0.00 0.00 0.01 94 981.6
20180116232115 35 270 1.0 3.0 0.00 0.00 0.01 95 981.5
20180116231609 35 337 2.0 2.0 0.00 0.00 0.01 96 981.4
20180116231104 35 337 1.0 2.0 0.00 0.00 0.01 95 981.4
20180116230558 35 180 0.0 0.0 0.00 0.00 0.01 96 981.3
20180116230053 35 180 0.0 0.0 0.00 0.00 0.01 96 981.4
20180116225549 35 180 0.0 1.0 0.00 0.00 0.01 96 981.5
20180116225043 34 135 1.0 1.0 0.00 0.00 0.01 96 981.4
20180116224538 34 135 0.0 1.0 0.00 0.00 0.01 95 981.5
20180116224032 34 135 1.0 2.0 0.00 0.00 0.01 96 981.5
20180116223527 34 135 1.0 1.0 0.00 0.00 0.01 95 981.4
20180116223023 34 135 1.0 1.0 0.00 0.00 0.01 94 981.4
20180116222517 34 135 0.0 0.0 0.00 0.00 0.01 95 981.5
20180116222012 34 180 0.0 0.0 0.00 0.00 0.01 95 981.5
20180116221507 34 337 0.0 0.0 0.00 0.00 0.01 96 981.6
20180116221001 34 337 1.0 1.0 0.00 0.00 0.01 93 981.4
20180116220457 34 310 2.0 3.0 0.00 0.00 0.01 96 981.4
20180116215952 34 225 2.0 3.0 0.00 0.00 0.01 95 981.3
20180116215446 35 261 2.0 3.0 0.00 0.00 0.01 93 981.2
20180116214941 35 225 2.0 4.0 0.00 0.00 0.01 93 981.1
20180116214435 35 270 4.0 7.0 0.00 0.00 0.01 94 981.1
20180116213931 35 270 4.0 5.0 0.00 0.00 0.01 93 981.0
20180116213425 35 270 3.0 3.0 0.00 0.00 0.01 95 981.0
20180116212920 35 270 2.0 5.0 0.00 0.00 0.01 95 981.0
20180116212414 36 297 2.0 5.0 0.00 0.00 0.01 95 981.1
20180116211909 36 310 4.0 5.0 0.00 0.00 0.01 94 981.0
20180116211405 36 270 7.0 7.0 0.00 0.00 0.01 93 981.0
20180116210859 36 343 5.0 5.0 0.00 0.00 0.01 94 980.9
20180116210354 36 319 5.0 5.0 0.00 0.00 0.01 96 980.8
20180116205849 36 342 2.0 6.0 0.00 0.00 0.01 95 980.8
20180116205343 36 346 6.0 6.0 0.00 0.00 0.01 95 980.8
20180116204838 36 345 2.0 3.0 0.00 0.00 0.00 96 980.8
20180116204333 36 342 3.0 3.0 0.00 0.00 0.00 95 980.8
20180116203828 36 351 3.0 3.0 0.00 0.00 0.00 95 980.9
20180116203323 36 337 3.0 4.0 0.00 0.00 0.00 95 980.8
20180116202817 36 337 3.0 4.0 0.00 0.00 0.00 95 980.8
20180116202313 35 355 5.0 5.0 0.00 0.00 0.00 94 980.7
20180116201810 35 22 4.0 6.0 0.00 0.00 0.00 96 980.7
20180116201302 35 22 4.0 5.0 0.00 0.00 0.00 95 980.6
20180116200756 35 171 3.0 4.0 0.00 0.00 0.00 97 980.7
20180116200251 35 135 3.0 3.0 0.00 0.00 0.00 95 980.7
20180116195747 35 22 3.0 3.0 0.00 0.00 0.00 95 980.8
20180116195241 35 180 2.0 2.0 0.00 0.00 0.00 94 980.9
20180116194736 36 22 1.0 2.0 0.00 0.00 0.00 95 980.9
20180116194230 36 22 1.0 1.0 0.00 0.00 0.00 93 980.9
20180116193725 36 22 1.0 2.0 0.00 0.00 0.00 93 980.9
20180116193221 36 180 2.0 2.0 0.00 0.00 0.00 97 980.9
20180116192715 36 157 2.0 3.0 0.00 0.00 0.26 95 980.8
20180116192210 36 135 2.0 2.0 0.00 0.00 0.26 95 980.7
20180116191704 36 180 2.0 3.0 0.00 0.00 0.26 95 980.8
20180116191159 36 135 3.0 4.0 0.00 0.00 0.26 94 980.8
20180116190654 36 162 3.0 4.0 0.00 0.00 0.26 95 980.9
20180116190149 36 180 3.0 4.0 0.00 0.00 0.26 95 980.8
20180116185644 36 135 3.0 6.0 0.00 0.00 0.26 95 980.7
20180116185138 36 22 3.0 4.0 0.00 0.00 0.26 93 980.7
20180116184633 36 180 3.0 4.0 0.00 0.00 0.26 93 980.6
20180116184128 36 180 4.0 5.0 0.00 0.00 0.26 95 980.5
20180116183623 36 180 3.0 4.0 0.00 0.00 0.26 95 980.5
20180116183118 36 180 3.0 7.0 0.00 0.00 0.26 93 980.5
20180116182612 36 351 6.0 9.0 0.00 0.00 0.26 95 980.6
20180116182107 37 0 7.0 8.0 0.00 0.00 0.26 96 980.6
20180116181603 37 0 7.0 9.0 0.00 0.00 0.26 94 980.4
20180116181057 37 0 3.0 7.0 0.00 0.00 0.26 93 980.5
20180116180552 36 337 5.0 10.0 0.00 0.00 0.26 93 980.5
20180116180046 36 354 5.0 7.0 0.00 0.00 0.26 95 980.4
20180116175541 36 180 2.0 5.0 0.00 0.00 0.26 93 980.5
20180116175036 37 180 5.0 8.0 0.00 0.00 0.26 95 980.6
20180116174531 37 346 6.0 9.0 0.00 0.00 0.26 93 980.5
20180116174026 37 342 9.0 10.0 0.00 0.00 0.25 95 980.5
20180116173520 37 180 5.0 9.0 0.00 0.00 0.25 95 980.4
20180116173015 37 180 7.0 7.0 0.00 0.00 0.25 95 980.2
20180116172510 37 180 8.0 8.0 0.00 0.00 0.25 93 980.3
20180116172005 37 0 10.0 13.0 0.00 0.00 0.25 95 980.2
20180116171500 37 351 8.0 9.0 0.00 0.00 0.24 95 980.2
20180116170954 37 337 6.0 8.0 0.00 0.00 0.24 95 980.3
20180116170449 37 180 8.0 9.0 0.00 0.00 0.24 95 980.2
20180116165944 37 337 7.0 10.0 0.00 0.00 0.24 95 980.3
20180116165439 37 11 9.0 16.0 0.00 0.00 0.24 96 980.3
20180116164934 37 22 9.0 10.0 0.00 0.00 0.24 93 980.3
20180116164428 37 22 7.0 8.0 0.00 0.00 0.24 93 980.3
20180116163923 37 22 7.0 9.0 0.00 0.00 0.24 95 980.2
20180116163418 37 22 9.0 11.0 0.00 0.00 0.24 95 980.2
20180116162913 37 22 10.0 13.0 0.00 0.00 0.24 93 980.2
20180116162408 37 22 5.0 11.0 0.00 0.00 0.24 94 980.2
20180116161902 37 13 10.0 12.0 0.00 0.00 0.24 94 980.3
20180116161357 37 22 11.0 14.0 0.00 0.00 0.24 92 980.1
20180116160852 37 4 9.0 12.0 0.00 0.00 0.24 94 980.2
20180116160347 37 180 9.0 11.0 0.00 0.00 0.24 92 980.2
20180116155842 37 180 11.0 14.0 0.00 0.00 0.24 95 980.2
20180116155336 37 180 9.0 12.0 0.00 0.00 0.24 95 980.2
20180116154831 37 343 10.0 12.0 0.00 0.00 0.24 92 980.2
20180116154326 37 180 9.0 13.0 0.00 0.00 0.24 94 980.2
20180116153821 37 337 10.0 14.0 0.00 0.00 0.24 94 980.1
20180116153316 37 180 11.0 14.0 0.00 0.00 0.24 92 980.2
20180116152810 37 180 9.0 13.0 0.00 0.00 0.24 94 980.1
20180116152305 37 180 12.0 14.0 0.00 0.00 0.23 92 980.2
20180116151800 37 180 10.0 14.0 0.00 0.00 0.23 92 980.3
20180116151255 37 180 16.0 16.0 0.00 0.00 0.23 94 980.1
20180116150750 37 180 10.0 13.0 0.00 0.00 0.23 92 980.1
20180116150244 37 180 9.0 12.0 0.00 0.00 0.23 95 980.1
20180116145739 37 180 12.0 12.0 0.00 0.00 0.23 94 980.1
20180116145234 37 180 8.0 12.0 0.00 0.00 0.23 93 980.1
20180116144729 37 180 10.0 10.0 0.00 0.00 0.23 91 979.9
20180116144224 37 180 7.0 9.0 0.00 0.00 0.23 93 980.1
20180116143718 37 180 6.0 16.0 0.00 0.00 0.23 93 980.1
20180116143213 37 328 12.0 16.0 0.00 0.00 0.23 91 980.1
20180116142708 37 328 13.0 18.0 0.00 0.00 0.22 94 980.0
20180116142203 38 352 6.0 10.0 0.00 0.00 0.20 93 979.9
20180116141657 38 337 8.0 15.0 0.00 0.00 0.20 91 979.9
20180116141152 38 337 7.0 12.0 0.00 0.00 0.20 91 979.9
20180116140647 38 337 10.0 13.0 0.00 0.00 0.20 93 979.9
20180116140142 38 4 12.0 14.0 0.00 0.00 0.20 91 979.8
20180116135637 38 180 11.0 13.0 0.00 0.00 0.20 91 979.7
20180116135131 38 180 14.0 14.0 0.00 0.00 0.20 93 979.6
20180116134626 38 22 11.0 17.0 0.00 0.00 0.20 91 979.6
20180116134121 38 180 12.0 15.0 0.00 0.00 0.20 91 979.6
20180116133616 38 180 12.0 15.0 0.00 0.00 0.20 93 979.6
20180116133111 38 337 10.0 15.0 0.00 0.00 0.20 90 979.7
20180116132605 38 180 11.0 14.0 0.00 0.00 0.20 92 979.7
20180116132100 39 7 10.0 12.0 0.00 0.00 0.20 93 979.6
20180116131555 39 180 14.0 17.0 0.00 0.00 0.20 91 979.3
20180116131050 39 180 14.0 15.0 0.00 0.00 0.20 91 979.5
20180116130545 39 180 11.0 17.0 0.00 0.00 0.20 92 979.3
20180116130039 39 180 15.0 18.0 0.00 0.00 0.20 92 979.4
20180116125534 39 180 17.0 18.0 0.00 0.00 0.20 93 979.4
20180116125029 39 0 15.0 17.0 0.00 0.00 0.20 93 979.3
20180116124524 39 354 10.0 17.0 0.00 0.00 0.20 93 979.4
20180116124019 39 345 12.0 18.0 0.00 0.00 0.20 91 979.3
20180116123514 39 343 15.0 19.0 0.00 0.00 0.20 93 979.4
20180116123008 39 180 13.0 16.0 0.00 0.00 0.20 93 979.3
20180116122503 39 337 12.0 19.0 0.00 0.00 0.20 91 979.4
20180116121958 39 342 12.0 21.0 0.00 0.00 0.20 91 979.3
20180116121453 39 342 20.0 21.0 0.00 0.00 0.20 93 979.4
20180116120947 39 342 12.0 19.0 0.00 0.00 0.20 93 979.2
20180116120442 39 348 13.0 19.0 0.00 0.00 0.20 91 979.2
20180116115937 39 352 18.0 20.0 0.00 0.00 0.20 92 979.2
20180116115432 39 180 16.0 19.0 0.00 0.00 0.20 91 979.0
20180116114927 39 0 17.0 18.0 0.00 0.00 0.20 90 979.1
20180116114421 39 180 17.0 17.0 0.00 0.00 0.20 93 979.3
20180116113916 39 346 17.0 23.0 0.00 0.00 0.20 91 979.3
20180116113411 39 0 14.0 23.0 0.00 0.00 0.20 93 979.2
20180116112906 39 0 15.0 18.0 0.00 0.00 0.20 93 979.2
20180116112401 39 342 14.0 22.0 0.00 0.00 0.20 93 979.1
20180116111855 39 0 14.0 16.0 0.00 0.00 0.20 93 979.4
20180116111351 39 180 17.0 18.0 0.00 0.00 0.20 91 979.2
20180116110845 39 337 13.0 21.0 0.00 0.00 0.20 93 979.1
20180116110340 39 352 14.0 27.0 0.00 0.00 0.20 92 979.1
20180116105834 39 180 15.0 22.0 0.00 0.00 0.20 93 979.2
20180116104824 39 0 27.0 27.0 0.00 0.00 0.20 93 979.1
20180116104319 39 4 20.0 25.0 0.00 0.00 0.20 93 979.0
20180116103814 39 22 22.0 26.0 0.00 0.00 0.20 95 979.1
20180116103309 39 180 26.0 26.0 0.00 0.00 0.20 95 979.0
20180116102803 39 180 18.0 24.0 0.00 0.00 0.20 94 979.2
20180116102258 39 180 13.0 21.0 0.00 0.00 0.20 93 979.2
20180116101753 39 13 23.0 23.0 0.00 0.00 0.20 93 979.1
20180116101248 39 355 19.0 24.0 0.00 0.00 0.20 94 979.1
20180116100742 38 4 13.0 24.0 0.00 0.00 0.20 94 979.1
20180116100238 38 22 23.0 23.0 0.00 0.00 0.20 94 978.8
20180116095732 38 348 20.0 23.0 0.00 0.00 0.20 92 978.8
20180116095227 38 355 16.0 23.0 0.00 0.00 0.20 94 978.9
20180116094722 38 4 25.0 25.0 0.00 0.00 0.20 95 978.8
20180116094217 38 346 20.0 22.0 0.00 0.00 0.20 92 978.8
20180116093711 38 22 15.0 24.0 0.00 0.00 0.20 93 978.7
20180116093206 38 355 23.0 28.0 0.00 0.00 0.20 93 978.6
20180116092701 38 22 17.0 27.0 0.00 0.00 0.20 94 978.6
20180116092156 38 22 24.0 26.0 0.00 0.00 0.20 94 978.6
20180116091651 38 22 24.0 28.0 0.00 0.00 0.20 95 978.5
20180116091145 38 4 19.0 26.0 0.00 0.00 0.20 94 978.5
20180116090641 38 22 20.0 31.0 0.00 0.00 0.20 95 978.5
20180116090135 38 0 24.0 24.0 0.00 0.00 0.19 94 978.4
20180116085630 38 13 23.0 28.0 0.00 0.00 0.19 94 978.3
20180116085124 38 355 19.0 26.0 0.00 0.00 0.19 95 978.2
20180116084619 38 13 16.0 26.0 0.00 0.00 0.19 94 978.4
20180116084114 38 22 19.0 26.0 0.00 0.00 0.19 92 978.4
20180116083609 37 4 26.0 26.0 0.00 0.00 0.19 93 978.1
20180116083104 38 13 18.0 24.0 0.00 0.00 0.19 95 978.2
20180116082559 38 13 23.0 26.0 0.00 0.00 0.19 93 977.9
20180116082053 38 4 22.0 25.0 0.00 0.00 0.19 95 978.1
20180116081548 38 22 26.0 28.0 0.00 0.00 0.19 95 977.8
20180116081043 38 4 23.0 29.0 0.00 0.00 0.19 95 977.7
20180116080538 38 13 22.0 24.0 0.00 0.00 0.19 94 977.9
20180116080033 37 22 19.0 26.0 0.00 0.00 0.19 96 977.7
20180116075527 37 22 26.0 29.0 0.00 0.00 0.19 96 977.6
20180116075022 37 4 24.0 31.0 0.00 0.00 0.19 96 977.6
20180116074517 37 0 19.0 23.0 0.00 0.00 0.19 95 977.4
20180116074012 37 22 19.0 33.0 0.00 0.00 0.19 96 977.4
20180116073506 37 22 23.0 28.0 0.00 0.00 0.18 95 977.3
20180116073001 37 22 22.0 29.0 0.00 0.00 0.18 95 977.2
20180116072456 36 22 25.0 34.0 0.00 0.00 0.18 96 977.2
20180116071951 35 22 21.0 29.0 0.00 0.00 0.18 94 977.3
20180116071446 35 22 27.0 34.0 0.00 0.00 0.18 95 977.2
20180116070940 35 22 29.0 33.0 0.00 0.00 0.17 93 976.5
20180116070435 35 22 20.0 33.0 0.00 0.00 0.16 94 976.8
20180116065930 35 142 21.0 35.0 0.00 0.00 0.16 93 976.3
20180116065425 34 22 26.0 34.0 0.00 0.00 0.16 95 976.7
20180116064920 34 22 25.0 32.0 0.00 0.00 0.16 94 976.7
20180116064415 34 171 22.0 39.0 0.00 0.00 0.15 94 976.5
20180116063909 34 157 22.0 36.0 0.00 0.00 0.14 93 976.7
20180116063404 34 135 25.0 40.0 0.00 0.00 0.14 94 976.5
20180116062859 34 180 29.0 31.0 0.00 0.00 0.13 94 976.7
20180116062354 34 144 27.0 32.0 0.00 0.00 0.13 92 976.7
20180116061848 33 180 24.0 35.0 0.00 0.00 0.13 93 976.8
20180116061343 34 168 24.0 44.0 0.00 0.00 0.13 94 977.1
20180116060838 34 22 26.0 39.0 0.00 0.00 0.12 93 977.1
20180116060333 34 22 23.0 40.0 0.00 0.00 0.12 93 977.1
20180116055828 34 171 16.0 34.0 0.00 0.00 0.12 94 977.1
20180116055322 34 144 23.0 36.0 0.00 0.00 0.12 92 977.2
20180116054817 34 166 18.0 30.0 0.00 0.00 0.12 93 977.0
20180116054312 34 144 24.0 33.0 0.00 0.00 0.12 92 977.1
20180116053807 33 162 27.0 32.0 0.00 0.00 0.11 92 977.2
20180116053302 33 175 24.0 29.0 0.00 0.00 0.11 93 977.6
20180116052756 33 180 24.0 29.0 0.00 0.00 0.11 93 977.7
20180116052251 33 130 22.0 29.0 0.00 0.00 0.11 93 977.6
20180116051746 33 171 17.0 33.0 0.00 0.00 0.11 92 977.7
20180116051241 33 180 27.0 33.0 0.00 0.00 0.11 91 977.5
20180116050736 33 153 29.0 34.0 0.00 0.00 0.09 91 977.9
20180116050231 33 171 13.0 40.0 0.00 0.00 0.09 91 978.3
20180116045725 33 175 21.0 30.0 0.00 0.00 0.09 92 978.2
20180116045220 33 135 24.0 34.0 0.00 0.00 0.09 91 978.4
20180116044715 33 180 22.0 33.0 0.00 0.00 0.09 93 978.0
20180116044210 33 153 30.0 31.0 0.00 0.00 0.09 93 978.8
20180116043704 33 171 34.0 34.0 0.00 0.00 0.09 92 978.7
20180116043159 33 175 18.0 39.0 0.00 0.00 0.09 90 979.1
20180116042654 33 180 20.0 35.0 0.00 0.00 0.09 93 979.1
20180116042149 33 148 23.0 28.0 0.00 0.00 0.09 93 979.3
20180116041644 33 135 16.0 30.0 0.00 0.00 0.09 93 979.6
20180116041138 33 168 26.0 32.0 0.00 0.00 0.09 93 979.4
20180116040633 33 135 20.0 33.0 0.00 0.00 0.08 93 979.8
20180116040128 33 153 20.0 33.0 0.00 0.00 0.08 93 980.0
20180116035623 33 180 24.0 32.0 0.00 0.00 0.08 92 980.0
20180116035118 33 180 23.0 32.0 0.00 0.00 0.08 92 980.3
20180116034612 33 135 24.0 38.0 0.00 0.00 0.08 93 980.3
20180116034107 33 139 21.0 42.0 0.00 0.00 0.08 92 980.3
20180116033602 33 180 22.0 36.0 0.00 0.00 0.08 91 980.4
20180116033057 33 171 21.0 33.0 0.00 0.00 0.07 91 980.7
20180116032552 33 180 20.0 30.0 0.00 0.00 0.07 94 981.0
20180116032046 33 162 22.0 29.0 0.00 0.00 0.07 91 980.9
20180116031541 33 171 20.0 30.0 0.00 0.00 0.07 92 981.1
20180116031036 33 180 24.0 27.0 0.00 0.00 0.07 91 981.2
20180116030531 33 144 21.0 30.0 0.00 0.00 0.07 93 981.5
20180116030026 33 162 16.0 30.0 0.00 0.00 0.07 93 981.6
20180116025520 33 171 11.0 26.0 0.00 0.00 0.07 93 981.9
20180116025015 33 180 16.0 24.0 0.00 0.00 0.07 92 981.9
20180116024510 33 180 18.0 33.0 0.00 0.00 0.07 94 982.1
20180116024005 33 144 17.0 28.0 0.00 0.00 0.06 91 982.4
20180116023500 33 144 14.0 30.0 0.00 0.00 0.06 93 982.3
20180116022954 33 180 24.0 31.0 0.00 0.00 0.06 91 982.4
20180116022450 34 153 17.0 23.0 0.00 0.00 0.06 91 982.7
20180116021944 34 175 31.0 32.0 0.00 0.00 0.06 92 982.6
20180116021439 34 180 16.0 30.0 0.00 0.00 0.05 91 982.9
20180116020934 33 153 29.0 29.0 0.00 0.00 0.05 91 983.2
20180116020428 33 162 31.0 31.0 0.00 0.00 0.05 92 983.1
20180116015923 33 171 17.0 35.0 0.00 0.00 0.05 91 983.6
20180116015418 34 171 30.0 32.0 0.00 0.00 0.05 92 983.6
20180116014913 34 175 18.0 25.0 0.00 0.00 0.05 91 983.8
20180116014408 34 144 22.0 32.0 0.00 0.00 0.05 92 983.9
20180116013902 34 171 16.0 32.0 0.00 0.00 0.04 92 984.2
20180116013357 34 180 20.0 37.0 0.00 0.00 0.04 93 983.9
20180116012852 33 144 21.0 35.0 0.00 0.00 0.04 92 984.5
20180116012347 33 171 30.0 31.0 0.00 0.00 0.04 92 984.7
20180116011842 33 171 28.0 30.0 0.00 0.00 0.03 92 984.9
20180116011336 33 171 17.0 34.0 0.00 0.00 0.03 92 984.9
20180116010831 33 166 24.0 32.0 0.00 0.00 0.03 93 985.1